RH
32 10 8 10 10 10 8 8 9 14 16 14 10 9 11 12 14 12 12 13 13 12 9 7 6 5 5 5 5 6 6 6 6 6 6 6 6 6 5 5 5 6 6 4 4
19 8 9 8 8 8 9 10 15 14 14 12 12 14 15 16 14 12 12 14 14 13 10 8 6 6 7 7 7 7 8 7 8 7 7 6 6 6 6 6 6 5 5 6 6
6 9 8 8 9 10 12 16 16 15 14 12 13 17 18 18 16 14 14 15 15 13 10 9 9 9 8 8 9 10 9 8 7 5 4 3 3 3 4 5 6 6 5 5 5
7 8 8 9 10 11 18 18 18 18 16 15 16 19 20 21 20 17 15 17 18 14 11 10 10 10 11 11 11 10 9 7 6 4 2 2 2 2 2 3 4 5 6 6 5
9 8 8 9 12 17 18 18 19 18 17 16 17 17 19 21 23 22 21 18 19 16 12 12 12 13 14 14 13 12 10 9 6 4 4 3 5 4 7 12 12 6 5 5 6
11 10 13 15 18 19 20 22 20 18 18 19 16 16 15 16 22 26 26 22 22 19 13 12 15 16 17 16 15 13 12 9 6 6 6 6 8 9 8 8 11 13 14 8 6
12 16 18 22 24 26 25 24 22 21 18 12 10 9 10 18 24 31 30 27 25 23 13 15 17 18 18 19 17 17 14 10 9 9 8 9 10 10 14 17 15 14 14 12 12
17 20 24 26 28 27 26 25 23 20 17 18 20 24 27 31 36 36 35 30 27 24 17 19 19 20 22 23 21 19 16 12 12 9 9 9 12 15 20 21 20 15 12 11 18
34 31 26 22 21 22 24 26 30 32 25 21 28 35 37 41 42 41 38 33 29 25 18 21 24 25 26 28 25 23 21 16 19 15 10 12 11 24 23 32 18 14 16 20 22
39 39 36 36 27 21 26 23 23 16 16 15 21 22 39 43 44 45 41 36 34 27 19 24 29 30 32 34 30 26 24 21 30 28 15 12 10 28 49 31 16 15 20 27 24
44 44 39 35 36 24 20 16 14 13 13 12 11 16 37 42 46 44 43 39 38 31 22 32 33 39 37 39 36 31 31 29 32 52 40 28 19 28 44 29 17 16 34 28 18
17 33 38 41 37 31 22 13 10 11 9 9 12 16 20 28 34 38 39 40 39 36 24 32 42 42 44 46 40 35 37 35 26 57 57 41 24 38 42 33 20 20 38 43 25
11 9 22 28 18 14 8 7 7 7 7 8 11 15 20 19 22 29 33 41 40 41 27 34 49 51 51 53 42 40 44 39 39 60 73 49 33 41 45 49 49 39 48 53 36
15 7 4 10 14 8 7 6 6 7 7 9 11 16 16 17 20 20 30 37 41 44 34 38 53 59 60 53 43 40 45 40 54 77 61 69 36 37 40 70 78 58 48 79 48
22 19 18 8 4 4 4 4 6 8 8 12 11 12 13 14 14 22 24 34 41 43 40 45 60 63 59 53 43 43 50 42 57 72 66 89 66 34 44 50 58 65 66 91 71
44 31 22 18 18 14 9 7 7 10 8 12 11 11 10 10 15 16 25 34 40 41 42 43 65 70 60 57 40 47 53 52 59 62 69 66 70 44 64 51 44 79 86 92 96
34 27 24 20 15 14 12 10 10 11 12 11 11 9 8 9 12 19 25 34 41 44 42 40 76 76 66 55 39 58 67 60 50 60 51 70 51 64 71 64 68 73 96 90 100
47 46 37 33 28 21 13 11 13 13 11 11 9 9 8 9 11 18 23 30 42 46 43 39 68 78 68 47 40 64 71 100 82 66 52 55 60 57 86 80 82 79 96 97 92
42 45 38 28 28 28 30 30 26 22 19 11 9 10 10 11 11 15 21 29 36 47 45 41 58 87 66 41 47 66 76 88 73 81 58 47 48 70 77 86 100 84 86 100 83
29 26 29 24 16 12 18 24 24 23 24 18 9 9 9 9 10 14 18 24 32 47 47 42 42 85 66 41 58 76 83 86 99 86 54 47 57 97 84 96 100 95 96 89 93
31 26 24 18 16 17 24 22 20 19 19 16 10 8 8 9 11 14 20 23 33 42 48 41 46 88 70 46 58 68 70 76 90 81 53 46 60 100 97 100 100 96 75 88 95
29 29 27 20 18 20 22 18 19 18 17 14 13 9 8 9 10 14 21 33 37 44 47 42 50 80 70 49 50 65 67 78 80 72 74 83 66 100 100 100 100 88 85 88 87
33 32 29 27 24 21 19 16 14 15 15 11 13 11 8 9 14 13 19 22 37 46 47 45 65 83 64 49 45 60 71 66 58 56 70 92 78 100 100 100 100 89 100 72 63
11 11 12 16 18 20 19 13 7 6 10 11 9 12 11 8 15 11 18 21 32 47 49 54 68 99 64 54 52 53 70 63 56 53 66 100 77 100 100 100 95 81 100 66 51
9 8 6 6 6 5 5 5 8 5 3 4 8 8 11 11 11 16 18 25 28 51 54 58 61 92 60 53 57 62 59 60 47 78 86 91 100 96 98 100 87 90 95 95 54
7 6 5 4 4 4 4 4 4 4 3 3 3 6 11 12 13 15 16 22 29 48 57 60 66 82 52 50 61 78 64 44 64 85 100 100 97 99 100 100 90 100 100 100 100
6 5 5 4 5 5 4 4 3 3 3 3 3 5 6 13 15 12 16 15 21 44 62 56 60 79 46 46 68 76 61 57 66 96 100 100 100 93 100 80 65 70 99 100 91
Wind_Speed
15 13 12 10 9 8 8 9 10 9 10 14 17 18 19 21 22 24 26 27 27 27 27 27 27 28 29 30 32 34 36 38 40 43 46 48 50 53 56 58 60 61 62 63 62
14 12 12 10 9 9 10 11 10 11 13 15 17 18 20 22 24 25 26 27 27 28 29 28 27 27 28 30 32 34 36 40 44 48 52 56 58 61 61 61 60 64 64 65 65
14 13 12 12 12 12 12 11 11 14 15 17 17 18 20 22 25 26 26 27 27 28 28 28 28 29 30 32 33 35 40 45 49 52 54 57 63 69 71 69 69 73 71 69 68
14 14 14 13 14 14 13 12 13 15 17 19 20 21 22 24 26 27 28 28 27 27 28 28 29 29 30 32 35 38 43 46 46 49 49 52 59 64 64 53 52 69 74 75 74
15 15 15 15 14 14 14 15 16 18 21 23 23 23 24 26 28 28 30 30 29 28 29 29 30 31 32 33 36 40 43 46 48 48 46 48 43 46 26 26 33 46 61 64 74
15 14 15 15 15 15 16 17 18 20 22 23 25 26 27 27 30 31 31 31 32 31 30 30 31 33 33 34 37 42 44 47 47 44 43 46 36 40 30 37 37 36 39 52 58
14 14 15 16 16 16 17 19 21 22 23 24 25 28 29 30 32 33 34 34 32 32 31 32 33 35 37 37 38 41 45 47 45 44 46 48 37 41 40 46 43 42 44 34 30
12 13 14 15 16 17 18 20 21 23 25 28 30 31 32 30 31 32 33 33 34 34 32 33 35 37 38 39 42 44 48 49 45 42 47 47 35 37 38 44 44 44 42 40 43
18 16 17 18 19 20 21 23 25 26 26 26 28 29 28 29 29 30 32 33 33 33 33 34 36 37 39 41 43 44 49 48 43 43 45 46 35 34 38 42 43 44 44 44 45
23 22 22 21 22 22 21 21 22 22 26 28 27 31 28 30 32 30 31 33 33 33 32 34 37 38 40 43 45 46 50 49 44 45 44 45 39 35 37 42 38 40 38 40 46
27 29 27 29 28 24 24 25 24 23 27 28 29 28 27 30 30 31 32 33 34 34 33 34 37 39 41 43 45 46 49 52 44 44 46 41 36 32 38 40 37 38 35 39 40
26 22 24 26 28 28 29 28 28 28 29 27 26 25 27 27 30 31 33 34 34 35 35 36 37 40 42 44 46 47 50 52 45 41 42 37 31 32 36 35 38 41 41 39 34
29 28 27 27 27 26 27 28 29 29 30 29 28 28 25 28 30 32 32 34 34 35 36 37 38 41 42 44 46 46 52 52 46 35 36 35 30 26 30 32 34 35 31 34 26
33 32 32 32 32 31 31 31 32 32 34 34 29 27 29 31 31 32 33 35 35 36 37 38 38 40 41 44 47 46 51 47 39 36 31 32 32 20 27 24 25 33 42 31 27
37 38 37 37 35 35 34 32 31 32 38 31 31 32 32 33 34 32 34 36 36 38 40 40 40 41 41 45 46 47 49 42 34 34 30 29 30 24 28 26 29 39 33 24 25
42 42 41 40 40 39 37 36 33 35 38 35 32 33 33 34 33 34 35 36 38 38 39 40 40 41 42 43 45 48 46 36 32 29 26 30 33 22 28 30 37 29 25 21 22
46 46 46 45 43 41 39 38 37 40 38 36 33 32 34 34 33 33 34 35 38 43 42 39 38 39 41 42 42 44 43 36 30 31 31 32 34 29 31 33 36 28 22 25 21
50 50 49 50 47 45 43 41 42 43 38 35 34 33 35 34 34 32 33 35 36 41 45 45 38 38 41 43 45 43 38 30 30 31 36 35 30 27 30 34 35 36 26 22 22
49 51 49 49 49 47 45 45 44 43 40 37 36 36 34 34 35 33 32 34 36 39 43 48 41 36 40 41 43 44 33 28 29 33 37 38 34 28 33 38 41 38 31 23 18
53 52 51 52 50 48 47 47 45 43 40 38 39 37 36 34 36 34 32 35 36 38 43 46 46 34 36 39 40 38 32 26 27 32 39 39 29 39 39 42 35 30 18 16 19
59 57 56 56 55 53 53 49 46 43 41 39 38 39 38 35 35 34 32 35 36 38 42 46 45 38 37 41 39 33 26 25 28 27 34 35 27 37 40 34 25 20 20 16 20
62 62 59 60 61 57 55 50 49 47 44 41 41 39 39 35 35 35 30 34 34 37 40 43 45 40 36 37 35 26 25 24 27 31 28 35 33 36 32 23 25 21 10 7 18
63 64 62 64 66 62 56 55 53 52 49 45 43 41 40 37 35 35 30 32 32 35 38 41 44 44 35 38 33 25 24 26 29 28 23 31 32 37 23 22 15 13 6 6 13
65 66 67 69 66 65 62 59 55 54 55 53 47 44 41 38 35 37 30 30 31 33 35 40 38 36 36 34 31 24 21 27 28 29 25 25 36 27 20 21 9 9 6 12 16
69 69 70 70 67 68 68 62 60 58 56 56 52 46 42 40 39 35 34 29 30 30 33 38 37 32 32 32 27 26 22 20 22 24 28 29 30 30 26 20 9 5 6 14 18
72 71 73 72 72 73 73 69 66 63 62 57 54 52 46 42 38 36 35 28 29 28 30 34 35 30 28 30 26 23 23 18 18 22 25 28 27 29 26 12 3 10 5 11 14
75 76 77 75 73 75 80 77 73 71 68 65 62 57 52 40 41 39 35 29 29 26 28 30 31 29 25 25 23 22 17 15 16 20 23 24 26 26 21 12 10 9 16 19 24
Wind_Direction
270 271 255 240 234 236 243 249 254 265 287 297 301 300 299 299 300 296 295 296 297 297 295 292 290 289 288 290 290 290 288 287 284 282 280 277 274 271 267 265 263 258 252 248 246
264 253 249 242 243 240 243 248 260 276 290 298 298 300 304 306 303 300 301 303 303 302 300 297 295 296 298 297 294 292 291 287 286 284 282 279 275 271 268 266 264 258 254 247 243
253 236 236 240 245 245 246 255 271 283 290 294 295 299 303 307 308 308 306 308 308 306 303 302 302 302 302 300 297 294 293 293 294 291 287 282 276 269 264 259 255 252 251 250 242
243 240 245 247 247 250 255 264 276 286 293 294 295 299 305 310 317 315 313 314 313 309 307 305 305 305 304 301 301 303 305 305 302 297 292 284 277 273 271 266 261 255 248 246 244
248 250 252 251 251 255 262 275 285 293 294 294 295 300 308 313 314 318 318 314 314 314 312 310 308 307 306 308 311 313 314 313 306 296 292 286 277 277 282 277 263 257 253 249 243
258 258 257 255 259 265 273 280 287 292 296 299 301 302 308 311 315 315 316 315 314 315 313 310 308 308 311 315 317 318 319 315 304 294 286 276 276 282 279 278 282 279 277 259 247
263 265 265 266 268 274 280 287 292 297 301 303 304 304 306 310 313 314 313 316 315 316 315 312 311 312 316 319 320 320 320 314 303 290 280 278 284 287 283 279 278 281 278 279 291
275 271 270 274 277 282 287 292 296 299 302 303 303 304 307 310 311 311 314 316 316 317 317 314 315 315 320 320 321 322 322 316 305 293 276 278 292 288 287 283 279 275 277 276 282
276 278 277 276 276 279 283 286 289 294 302 309 313 310 311 312 310 315 317 318 318 319 319 317 315 317 319 320 321 322 322 316 303 293 280 281 297 282 285 286 287 281 282 282 282
275 277 274 279 280 283 283 291 299 304 307 315 319 317 312 310 315 319 319 319 322 323 322 319 318 319 319 321 321 323 321 321 307 296 289 283 286 281 290 295 299 287 281 283 285
272 267 271 281 287 286 292 299 301 302 309 312 315 321 320 313 314 319 320 323 326 327 325 322 321 320 319 321 321 322 319 320 308 296 291 293 289 281 295 299 298 293 285 292 289
280 277 279 277 275 278 285 293 297 299 304 311 314 315 315 316 315 317 320 323 327 329 327 325 323 319 320 321 321 321 319 320 313 296 293 291 292 294 298 300 300 296 291 291 294
269 272 274 276 277 278 282 290 294 300 303 308 314 310 312 314 316 319 321 323 328 331 328 327 325 321 320 321 321 323 321 321 314 304 301 298 292 296 305 305 296 292 300 295 286
268 269 270 270 269 275 278 283 289 295 299 306 309 310 308 313 316 320 322 323 327 332 330 329 326 322 321 321 323 326 324 320 312 312 311 315 300 302 299 300 302 297 294 292 282
266 267 267 268 270 270 275 278 283 289 294 303 305 306 308 312 317 319 322 324 326 333 333 332 330 324 323 324 324 327 325 321 314 313 311 313 308 299 293 289 296 310 292 281 273
264 266 267 268 269 270 272 276 280 282 287 295 302 304 306 309 314 318 321 323 325 330 333 336 332 324 324 326 325 327 325 323 316 315 307 316 313 316 303 295 301 317 290 284 260
262 262 264 265 266 267 268 269 273 276 285 290 296 300 302 307 310 314 319 321 326 328 334 337 336 324 325 327 327 328 327 324 324 323 318 319 315 318 310 303 308 308 298 292 253
263 262 262 264 263 264 265 265 269 278 281 285 289 293 298 303 306 311 315 320 325 327 331 334 345 331 327 330 330 331 328 321 318 316 317 316 322 318 314 315 315 307 303 280 253
262 260 259 259 260 259 260 262 268 271 275 280 284 288 293 297 301 306 311 319 323 326 331 332 344 334 328 331 330 330 327 318 317 316 321 330 335 335 321 322 319 301 290 277 255
259 257 257 257 256 257 257 264 269 269 271 273 277 283 288 292 297 302 309 314 321 325 329 331 334 336 331 332 331 328 324 320 317 320 323 328 345 333 326 330 324 319 299 273 243
261 259 257 256 258 259 261 264 266 267 270 272 273 277 282 286 292 298 305 310 317 321 329 329 333 339 334 336 335 328 323 323 324 327 323 326 355 330 331 331 318 322 313 264 214
261 262 261 261 261 258 260 260 262 262 264 269 271 272 277 279 286 293 300 305 314 318 326 329 331 336 336 339 338 326 329 335 330 328 328 314 344 334 327 317 321 334 310 243 215
260 260 261 260 262 262 261 259 259 262 261 262 266 268 272 276 281 287 296 301 309 316 325 329 333 332 338 342 344 334 329 328 326 326 332 322 332 325 340 329 325 325 264 204 195
262 261 261 259 257 258 258 259 259 258 258 259 259 262 269 274 274 283 290 299 305 314 322 328 333 332 332 340 337 334 326 322 327 329 337 331 336 341 322 313 353 344 335 157 163
263 263 263 263 260 260 258 254 253 256 256 258 259 260 263 265 270 277 282 292 301 310 319 326 331 331 330 337 334 336 335 327 329 332 336 339 332 333 326 346 24 4 47 136 145
267 267 266 265 263 261 258 257 254 252 252 253 255 253 254 259 263 268 276 285 296 303 314 322 329 331 331 335 335 334 333 337 342 336 338 339 352 345 2 326 350 63 73 125 131
266 265 265 262 259 258 257 255 255 254 251 248 248 245 247 252 255 262 270 278 290 298 309 319 326 332 335 337 339 338 333 338 343 338 349 355 1 2 1 51 67 82 77 115 144